| time (UTC) | temp C | wind direction | speed KPH | gust KPH | rain 1hr cm | rain 24hr cm | rain mn cm | humidity % | barometer mb |
| 20260502223025 | 18 | 270 | 0.0 | 14.5 | 0.00 | 0.00 | 0.00 | 32 | 1002.9 |
| 20260502221522 | 18 | 255 | 1.6 | 20.9 | 0.00 | 0.00 | 0.00 | 31 | 1003.0 |
| 20260502220027 | 18 | 259 | 3.2 | 16.1 | 0.00 | 0.00 | 0.00 | 31 | 1003.3 |
| 20260502214519 | 19 | 242 | 6.4 | 17.7 | 0.00 | 0.00 | 0.00 | 29 | 1003.5 |
| 20260502213017 | 19 | 240 | 9.7 | 17.7 | 0.00 | 0.00 | 0.00 | 28 | 1003.8 |
| 20260502211516 | 19 | 300 | 3.2 | 19.3 | 0.00 | 0.00 | 0.00 | 30 | 1003.9 |
| 20260502210011 | 19 | 218 | 9.7 | 20.9 | 0.00 | 0.00 | 0.00 | 30 | 1004.3 |
| 20260502204508 | 18 | 233 | 8.0 | 17.7 | 0.00 | 0.00 | 0.00 | 30 | 1004.5 |
| 20260502203004 | 17 | 256 | 8.0 | 19.3 | 0.00 | 0.00 | 0.00 | 31 | 1004.9 |
| 20260502201600 | 17 | 311 | 1.6 | 24.1 | 0.00 | 0.00 | 0.00 | 33 | 1005.2 |
| 20260502200130 | 17 | 208 | 6.4 | 20.9 | 0.00 | 0.00 | 0.00 | 33 | 1005.6 |
| 20260502194608 | 17 | 302 | 6.4 | 17.7 | 0.00 | 0.00 | 0.00 | 32 | 1005.9 |
| 20260502193056 | 16 | 246 | 3.2 | 16.1 | 0.00 | 0.00 | 0.00 | 33 | 1006.2 |
| 20260502191556 | 16 | 232 | 6.4 | 19.3 | 0.00 | 0.00 | 0.00 | 33 | 1006.6 |
| 20260502190047 | 16 | 257 | 6.4 | 17.7 | 0.00 | 0.00 | 0.00 | 34 | 1006.9 |
| 20260502184545 | 15 | 244 | 6.4 | 17.7 | 0.00 | 0.00 | 0.00 | 34 | 1007.1 |
| 20260502183047 | 15 | 205 | 6.4 | 20.9 | 0.00 | 0.00 | 0.00 | 34 | 1007.4 |
| 20260502181540 | 14 | 236 | 4.8 | 17.7 | 0.00 | 0.00 | 0.00 | 34 | 1007.7 |
| 20260502163020 | 12 | 270 | 3.2 | 14.5 | 0.00 | 0.00 | 0.00 | 39 | 1009.3 |
| 20260502161514 | 12 | 310 | 4.8 | 12.9 | 0.00 | 0.00 | 0.00 | 39 | 1009.6 |
| 20260502151502 | 10 | 316 | 3.2 | 19.3 | 0.00 | 0.00 | 0.00 | 46 | 1010.2 |
| 20260502150131 | 10 | 329 | 4.8 | 11.3 | 0.00 | 0.00 | 0.00 | 49 | 1010.3 |
| 20260502123040 | 4 | 259 | 1.6 | 8.0 | 0.00 | 0.00 | 0.00 | 62 | 1010.7 |
| 20260502121539 | 4 | 259 | 0.0 | 9.7 | 0.00 | 0.00 | 0.00 | 62 | 1010.7 |
| 20260502114539 | 3 | 259 | 0.0 | 9.7 | 0.00 | 0.00 | 0.00 | 60 | 1010.5 |
| 20260502113046 | 3 | 259 | 0.0 | 3.2 | 0.00 | 0.00 | 0.00 | 60 | 1010.5 |
| 20260502111537 | 3 | 259 | 1.6 | 9.7 | 0.00 | 0.00 | 0.00 | 60 | 1010.4 |
| 20260502110036 | 3 | 259 | 3.2 | 9.7 | 0.00 | 0.00 | 0.00 | 60 | 1010.4 |
| 20260502104532 | 3 | 259 | 1.6 | 8.0 | 0.00 | 0.00 | 0.00 | 59 | 1010.4 |
| 20260502103056 | 4 | 259 | 4.8 | 11.3 | 0.00 | 0.00 | 0.00 | 58 | 1010.3 |
| 20260502101544 | 4 | 259 | 1.6 | 9.7 | 0.00 | 0.00 | 0.00 | 57 | 1010.4 |
| 20260502091520 | 5 | 260 | 1.6 | 11.3 | 0.00 | 0.00 | 0.00 | 53 | 1010.2 |
| 20260502070103 | 6 | 288 | 0.0 | 9.7 | 0.00 | 0.00 | 0.00 | 50 | 1010.5 |
| 20260502064557 | 6 | 288 | 1.6 | 8.0 | 0.00 | 0.00 | 0.00 | 49 | 1010.7 |
| 20260502063117 | 6 | 288 | 3.2 | 11.3 | 0.00 | 0.00 | 0.00 | 49 | 1010.6 |
| 20260502061554 | 6 | 288 | 1.6 | 8.0 | 0.00 | 0.00 | 0.00 | 48 | 1010.7 |
| 20260502060053 | 6 | 288 | 1.6 | 8.0 | 0.00 | 0.00 | 0.00 | 47 | 1010.8 |
| 20260502054604 | 6 | 288 | 1.6 | 8.0 | 0.00 | 0.00 | 0.00 | 46 | 1010.7 |
| 20260502053050 | 6 | 288 | 0.0 | 8.0 | 0.00 | 0.00 | 0.00 | 46 | 1010.7 |
| 20260502051548 | 7 | 288 | 0.0 | 8.0 | 0.00 | 0.00 | 0.00 | 45 | 1010.7 |
| 20260502050044 | 7 | 288 | 1.6 | 9.7 | 0.00 | 0.00 | 0.00 | 44 | 1010.7 |
| 20260502044544 | 7 | 288 | 3.2 | 8.0 | 0.00 | 0.00 | 0.00 | 44 | 1010.6 |
| 20260502043053 | 7 | 288 | 4.8 | 11.3 | 0.00 | 0.00 | 0.00 | 44 | 1010.6 |
| 20260502041543 | 7 | 288 | 1.6 | 8.0 | 0.00 | 0.00 | 0.00 | 44 | 1010.6 |
| 20260502040050 | 7 | 288 | 0.0 | 8.0 | 0.00 | 0.00 | 0.00 | 42 | 1010.6 |
| 20260502034542 | 7 | 288 | 1.6 | 8.0 | 0.00 | 0.00 | 0.00 | 42 | 1010.6 |
| 20260502033043 | 8 | 288 | 1.6 | 9.7 | 0.00 | 0.00 | 0.00 | 41 | 1010.7 |
| 20260502031540 | 8 | 288 | 3.2 | 8.0 | 0.00 | 0.00 | 0.00 | 40 | 1010.7 |
| 20260502030044 | 8 | 288 | 3.2 | 9.7 | 0.00 | 0.00 | 0.00 | 39 | 1010.7 |
| 20260502024540 | 8 | 288 | 6.4 | 11.3 | 0.00 | 0.00 | 0.00 | 37 | 1010.6 |
| 20260502023040 | 8 | 290 | 4.8 | 11.3 | 0.00 | 0.00 | 0.00 | 37 | 1010.6 |
| 20260502021539 | 8 | 292 | 4.8 | 9.7 | 0.00 | 0.00 | 0.00 | 36 | 1010.5 |
| 20260502020039 | 8 | 293 | 3.2 | 8.0 | 0.00 | 0.00 | 0.00 | 37 | 1010.4 |
| 20260502014539 | 9 | 296 | 3.2 | 8.0 | 0.00 | 0.00 | 0.00 | 36 | 1010.2 |
| 20260502013038 | 9 | 348 | 1.6 | 6.4 | 0.00 | 0.00 | 0.00 | 36 | 1010.1 |
| 20260502011538 | 10 | 348 | 1.6 | 8.0 | 0.00 | 0.00 | 0.00 | 36 | 1010.1 |
| 20260502010042 | 10 | 54 | 3.2 | 9.7 | 0.00 | 0.00 | 0.00 | 34 | 1010.0 |
| 20260502004537 | 11 | 54 | 1.6 | 11.3 | 0.00 | 0.00 | 0.00 | 34 | 1010.0 |
| 20260502003036 | 11 | 51 | 4.8 | 11.3 | 0.00 | 0.00 | 0.00 | 33 | 1010.0 |
| 20260502001536 | 10 | 5 | 1.6 | 8.0 | 0.00 | 0.00 | 0.00 | 35 | 1010.0 |
| 20260502000036 | 10 | 71 | 1.6 | 11.3 | 0.00 | 0.00 | 0.00 | 34 | 1009.9 |
| 20260501234537 | 11 | 54 | 3.2 | 8.0 | 0.00 | 0.00 | 0.00 | 33 | 1010.0 |
| 20260501233046 | 10 | 52 | 6.4 | 16.1 | 0.00 | 0.00 | 0.00 | 34 | 1009.9 |
| 20260501231535 | 10 | 59 | 3.2 | 8.0 | 0.00 | 0.00 | 0.00 | 34 | 1009.9 |
| 20260501230034 | 10 | 348 | 4.8 | 16.1 | 0.00 | 0.00 | 0.00 | 33 | 1010.0 |
| 20260501224532 | 10 | 309 | 11.3 | 19.3 | 0.00 | 0.00 | 0.00 | 35 | 1009.9 |